When you browse on this site, cookies collect data to enhance your experience and personalize the content and advertising you see.
Visit our Privacy Policy to learn more. By continuing to use the site, you agree to this use of cookies and data.
  • In Spain
  • List of Countries
  • For 7 days
  • Water Temperature
  • Satellite Maps
  • Weather Map
  • Weather Widgets
  • user-avatar
    Login

    Hourly Weather Nish

    Today, 22 April, Monday

    Time Temperature Precipitation Wind Pressure Humidity
    00:00 +8°C° 0 mm 1 mps 711 mmHg 63%
    01:00 +7°C° 0 mm 2 mps 710 mmHg 65%
    02:00 +6°C° 0 mm 2 mps 710 mmHg 69%
    03:00 +6°C° 0 mm 2 mps 710 mmHg 73%
    04:00 +6°C° 0 mm 2 mps 710 mmHg 77%
    05:00 +7°C° 0 mm 2 mps 710 mmHg 74%
    06:00 +9°C° 0 mm 2 mps 710 mmHg 71%
    07:00 +12°C° 0 mm 2 mps 710 mmHg 66%
    08:00 +14°C° 0 mm 2 mps 710 mmHg 60%
    09:00 +16°C° 0 mm 2 mps 710 mmHg 54%
    10:00 +17°C° 0 mm 3 mps 710 mmHg 48%
    11:00 +18°C° 0 mm 3 mps 710 mmHg 45%
    12:00 +19°C° 0 mm 3 mps 710 mmHg 41%
    13:00 +20°C° 0 mm 3 mps 710 mmHg 38%
    14:00 +20°C° 0 mm 4 mps 709 mmHg 39%
    15:00 +20°C° 0 mm 4 mps 709 mmHg 41%
    16:00 +20°C° 0 mm 4 mps 708 mmHg 43%
    17:00 +17°C° 0 mm 3 mps 708 mmHg 51%
    18:00 +15°C° 0 mm 2 mps 708 mmHg 59%
    19:00 +13°C° 0 mm 2 mps 708 mmHg 68%
    20:00 +12°C° 0 mm 2 mps 708 mmHg 71%
    21:00 +10°C° 0 mm 2 mps 708 mmHg 74%
    22:00 +9°C° 0 mm 2 mps 709 mmHg 77%
    23:00 +9°C° 0.3 mm 2 mps 709 mmHg 79%

    Tomorrow, 23 April, Tuesday

    Time Temperature Precipitation Wind Pressure Humidity
    00:00 +9°C° 0.3 mm 2 mps 709 mmHg 80%
    01:00 +9°C° 0.3 mm 2 mps 709 mmHg 82%
    02:00 +9°C° 1.2 mm 2 mps 709 mmHg 85%
    03:00 +8°C° 1.2 mm 2 mps 709 mmHg 88%
    04:00 +8°C° 1.2 mm 2 mps 709 mmHg 91%
    05:00 +8°C° 0.2 mm 3 mps 709 mmHg 89%
    06:00 +8°C° 0.2 mm 3 mps 709 mmHg 87%
    07:00 +9°C° 0.2 mm 3 mps 709 mmHg 84%
    08:00 +10°C° 0.1 mm 4 mps 710 mmHg 78%
    09:00 +12°C° 0.1 mm 5 mps 710 mmHg 71%
    10:00 +13°C° 0.1 mm 5 mps 710 mmHg 65%
    11:00 +15°C° 0 mm 6 mps 710 mmHg 61%
    12:00 +16°C° 0 mm 6 mps 710 mmHg 58%
    13:00 +17°C° 0 mm 6 mps 710 mmHg 54%
    14:00 +16°C° 0 mm 6 mps 709 mmHg 57%
    15:00 +16°C° 0 mm 5 mps 709 mmHg 60%
    16:00 +15°C° 0 mm 4 mps 709 mmHg 63%
    17:00 +14°C° 0 mm 4 mps 709 mmHg 65%
    18:00 +13°C° 0 mm 3 mps 709 mmHg 68%
    19:00 +13°C° 0 mm 2 mps 709 mmHg 71%
    20:00 +12°C° 0 mm 2 mps 710 mmHg 73%
    21:00 +10°C° 0 mm 2 mps 710 mmHg 74%
    22:00 +10°C° 0 mm 2 mps 711 mmHg 76%
    23:00 +9°C° 0 mm 2 mps 711 mmHg 77%

    Day after tomorrow, 24 April, Wednesday

    Time Temperature Precipitation Wind Pressure Humidity
    00:00 +9°C° 0 mm 2 mps 711 mmHg 79%
    01:00 +8°C° 0 mm 2 mps 711 mmHg 80%
    02:00 +8°C° 0 mm 2 mps 711 mmHg 81%
    03:00 +7°C° 0 mm 2 mps 711 mmHg 83%
    04:00 +7°C° 0 mm 2 mps 711 mmHg 84%
    05:00 +8°C° 0 mm 2 mps 712 mmHg 81%
    06:00 +9°C° 0 mm 2 mps 712 mmHg 77%
    07:00 +10°C° 0 mm 2 mps 712 mmHg 74%
    08:00 +13°C° 0 mm 2 mps 713 mmHg 67%
    09:00 +16°C° 0 mm 3 mps 713 mmHg 61%
    10:00 +18°C° 0 mm 3 mps 713 mmHg 55%
    11:00 +19°C° 0 mm 3 mps 713 mmHg 51%
    12:00 +20°C° 0 mm 3 mps 713 mmHg 48%
    13:00 +22°C° 0 mm 3 mps 713 mmHg 45%
    14:00 +21°C° 0 mm 3 mps 713 mmHg 47%
    15:00 +21°C° 0 mm 3 mps 713 mmHg 49%
    16:00 +21°C° 0 mm 3 mps 713 mmHg 51%
    17:00 +18°C° 0 mm 2 mps 713 mmHg 61%
    18:00 +16°C° 0 mm 2 mps 712 mmHg 71%
    19:00 +13°C° 0 mm 1 mps 712 mmHg 82%
    20:00 +12°C° 0 mm 1 mps 713 mmHg 85%
    21:00 +12°C° 0 mm 1 mps 713 mmHg 88%
    22:00 +11°C° 0 mm 1 mps 713 mmHg 91%
    23:00 +10°C° 0 mm 1 mps 713 mmHg 91%

    25 April, Thursday

    Time Temperature Precipitation Wind Pressure Humidity
    00:00 +10°C° 0 mm 1 mps 713 mmHg 91%
    01:00 +10°C° 0 mm 1 mps 713 mmHg 92%
    02:00 +10°C° 0 mm 1 mps 713 mmHg 92%
    03:00 +9°C° 0 mm 1 mps 713 mmHg 92%
    04:00 +9°C° 0 mm 1 mps 713 mmHg 93%
    05:00 +11°C° 0 mm 1 mps 713 mmHg 87%
    06:00 +12°C° 0 mm 1 mps 714 mmHg 82%
    07:00 +14°C° 0 mm 1 mps 714 mmHg 77%
    08:00 +16°C° 0 mm 2 mps 714 mmHg 70%
    09:00 +18°C° 0 mm 2 mps 714 mmHg 64%
    10:00 +20°C° 0 mm 2 mps 714 mmHg 57%
    11:00 +21°C° 0 mm 2 mps 714 mmHg 54%
    12:00 +23°C° 0 mm 2 mps 714 mmHg 50%
    13:00 +24°C° 0 mm 2 mps 714 mmHg 47%
    14:00 +24°C° 0 mm 2 mps 713 mmHg 48%
    15:00 +24°C° 0 mm 3 mps 713 mmHg 50%
    16:00 +22°C° 0 mm 3 mps 713 mmHg 51%
    17:00 +20°C° 0.2 mm 2 mps 712 mmHg 61%
    18:00 +17°C° 0.2 mm 2 mps 712 mmHg 72%
    19:00 +15°C° 0.2 mm 1 mps 712 mmHg 82%
    20:00 +14°C° 0.5 mm 1 mps 712 mmHg 84%
    21:00 +14°C° 0.5 mm 1 mps 712 mmHg 86%
    22:00 +13°C° 0.5 mm 1 mps 713 mmHg 88%
    23:00 +13°C° 0.1 mm 1 mps 712 mmHg 89%

    26 April, Friday

    Time Temperature Precipitation Wind Pressure Humidity
    00:00 +13°C° 0.1 mm 1 mps 712 mmHg 90%
    01:00 +12°C° 0.1 mm 1 mps 712 mmHg 91%
    02:00 +12°C° 0 mm 1 mps 712 mmHg 91%
    03:00 +11°C° 0 mm 1 mps 712 mmHg 92%
    04:00 +11°C° 0 mm 1 mps 711 mmHg 93%
    05:00 +12°C° 0 mm 1 mps 712 mmHg 88%
    06:00 +14°C° 0 mm 1 mps 712 mmHg 83%
    07:00 +15°C° 0 mm 1 mps 712 mmHg 79%
    08:00 +17°C° 0 mm 2 mps 712 mmHg 70%
    09:00 +19°C° 0 mm 2 mps 712 mmHg 61%
    10:00 +21°C° 0 mm 2 mps 713 mmHg 52%
    11:00 +23°C° 0 mm 2 mps 712 mmHg 48%
    12:00 +24°C° 0 mm 2 mps 712 mmHg 44%
    13:00 +25°C° 0 mm 2 mps 712 mmHg 40%
    14:00 +25°C° 0 mm 2 mps 711 mmHg 41%
    15:00 +25°C° 0 mm 2 mps 711 mmHg 43%
    16:00 +25°C° 0 mm 2 mps 710 mmHg 44%
    17:00 +23°C° 0 mm 2 mps 710 mmHg 53%
    18:00 +19°C° 0 mm 2 mps 710 mmHg 62%
    19:00 +17°C° 0 mm 2 mps 710 mmHg 72%
    20:00 +16°C° 0 mm 2 mps 710 mmHg 74%
    21:00 +15°C° 0 mm 2 mps 710 mmHg 76%
    22:00 +14°C° 0 mm 2 mps 709 mmHg 79%
    23:00 +14°C° 0 mm 2 mps 709 mmHg 81%

    27 April, Saturday

    Time Temperature Precipitation Wind Pressure Humidity
    00:00 +13°C° 0 mm 2 mps 709 mmHg 83%
    01:00 +13°C° 0 mm 2 mps 709 mmHg 85%
    02:00 +12°C° 0 mm 2 mps 709 mmHg 87%
    03:00 +12°C° 0 mm 2 mps 708 mmHg 89%
    04:00 +12°C° 0 mm 2 mps 708 mmHg 91%
    05:00 +13°C° 0 mm 2 mps 709 mmHg 86%
    06:00 +14°C° 0 mm 2 mps 709 mmHg 80%
    07:00 +16°C° 0 mm 2 mps 709 mmHg 75%
    08:00 +18°C° 0 mm 2 mps 709 mmHg 67%
    09:00 +19°C° 0 mm 2 mps 709 mmHg 59%
    10:00 +21°C° 0 mm 2 mps 709 mmHg 51%
    11:00 +23°C° 0 mm 2 mps 708 mmHg 48%
    12:00 +24°C° 0 mm 2 mps 708 mmHg 46%
    13:00 +25°C° 0 mm 2 mps 708 mmHg 43%
    14:00 +24°C° 0.8 mm 2 mps 707 mmHg 49%
    15:00 +23°C° 0.8 mm 2 mps 707 mmHg 55%
    16:00 +21°C° 0.8 mm 2 mps 707 mmHg 61%
    17:00 +19°C° 1.8 mm 2 mps 707 mmHg 67%
    18:00 +17°C° 1.8 mm 2 mps 707 mmHg 74%
    19:00 +15°C° 1.8 mm 2 mps 707 mmHg 81%
    20:00 +14°C° 1.5 mm 2 mps 707 mmHg 85%
    21:00 +14°C° 1.5 mm 2 mps 707 mmHg 89%
    22:00 +12°C° 1.5 mm 3 mps 708 mmHg 94%
    23:00 +12°C° 0.2 mm 2 mps 708 mmHg 94%
    Show more